Starlink 31187

operational
NORAD ID: 58790 Int'l Des: 2024-012 Owner: SPXS Country: US Constellation: starlink
LEOCIRCULAR

About Starlink 31187

Description loading...

Live Position

Loading 3D Globe...

Upcoming Passes

Altitude History

Altitude vs Time

uPlot chart will show altitude changes over time

Two-Line Element Set

1 58790U 24012D 25350.20339449 .00008825 00000-0 32969-3 0 9992
2 58790 43.0023 277.0952 0001322 285.5133 74.5573 15.27594649108462
Epoch: Dec 16, 2025 • Age: 20 hours

Current Status

Altitude 482.9 km
Velocity 7.63 km/s
Sub-Earth Point 1.98°N, 2.78°W
Launch Date Jan 15, 2024
Age 1.9 years
Type internet

Technical Details

Classification Payload
Mass 730.00 kg
Dry Mass 700.00 kg
Total Mass 730.00 kg
Length 0.30 m
Diameter 4.10 m
Span 29.00 m
Shape Box + pan
Manufacturer SPXS
Bus Type Starlink V2M
Phase Status In Orbit
Owner/State SPXS/US

Large Constellations

Loading constellations...